Regional Weather Roundup
Issued by NWS Albany, NY

Home | Current Version | Previous Version | Text Only | Print | Product List | Glossary On
Versions: 1 2 3 4 5 6 7 8 9 10 11 12 13 14 15 16 17 18 19 20 21 22 23 24 25 26 27 28 29 30 31 32 33 34 35 36 37 38 39 40 41 42 43 44 45 46 47 48 49 50
000
ASUS41 KALY 271010
RWRALY

NEW YORK STATE HOURLY WEATHER ROUNDUP
NATIONAL WEATHER SERVICE ALBANY NY
600 AM EDT THU JUN 27 2019

NOTE: "FAIR" INDICATES FEW OR NO CLOUDS BELOW 12,000 FEET WITH NO
SIGNIFICANT WEATHER AND/OR NO OBSTRUCTIONS TO VISIBILITY.

NYZ032-033-038>043-046>054-057>066-NYZ062>081-082-084-271100-
EAST


CITY           SKY/WX    TMP DP  RH WIND       PRES   REMARKS
ALBANY         FAIR      65  61  87 CALM      30.11R
GLENS FALLS    FOG       62  62 100 CALM      30.10R VSB<1/4
POUGHKEEPSIE   FOG       61  60  97 CALM      30.11R VSB 1/4
NEWBURGH       CLEAR     63  63 100 CALM      30.12R
MONTGOMERY     FAIR      59  59 100 CALM      30.11S
WHITE PLAINS   FAIR      68  62  81 NW7       30.11R
ISLIP          FAIR      69  67  93 NW5       30.09R
NEW YORK CITY  FAIR      74  64  71 CALM      30.09R
CENTRAL PARK   FAIR      72  62  71 W3        30.13R
$$

NYZ005>009-017-018-044>046-055-056-271100-
CENTRAL


CITY           SKY/WX    TMP DP  RH WIND       PRES   REMARKS
FULTON         FAIR      56  52  86 CALM      30.13R
SYRACUSE       FAIR      62  57  83 CALM      30.13S
ROME           FAIR      57  56  96 SE5       30.14R
ELMIRA         FAIR      56  54  93 CALM      30.17R
BINGHAMTON     FAIR      60  55  83 W5        30.18R
MONTICELLO     FAIR      58  57  97 CALM      30.18R
$$

NYZ026>034-041>043-087-271100-
NORTH


CITY           SKY/WX    TMP DP  RH WIND       PRES   REMARKS
WATERTOWN      FAIR      60  58  92 SW3       30.11R
FORT DRUM      NOT AVBL
OGDENSBURG     FAIR      61  59  94 S5        30.07R
MASSENA        FAIR      63  58  83 SW7       30.09R
SARANAC LAKE   FAIR      51  50  96 S5        30.13R FOG
PLATTSBURGH    FAIR      67  60  78 VRB5      30.06R
$$

NYZ001>004-010>016-019>021-085-271100-
WEST


CITY           SKY/WX    TMP DP  RH WIND       PRES   REMARKS
NIAGARA FALLS  FAIR      62  59  90 SW5       30.14R
BUFFALO        MOCLDY    62  57  83 S7        30.15R
DUNKIRK        FAIR      59  55  87 S3        30.15R
JAMESTOWN      FAIR      58  55  90 S5        30.21R
WELLSVILLE     FAIR      56  54  93 CALM      30.23R
ROCHESTER      MOCLDY    63  58  83 SW9       30.14R
PENN YAN       FAIR      62  58  86 SW7       30.17R
$$

             KEY
       WCI = WIND CHILL INDEX
       VSB = VISIBILITY
       HX  = HEAT INDEX
$$




USA.gov is the U.S. government's official web portal to all federal, state and local government web resources and services.